UUEEUWKD

Guest
Details From UUEE - Moscou Sheremetyevo
To UWKD - Kazan
Flight Number -
Tags Generated
Created
Modified
Stats Distance 401 nm / 743 km
Max Altitude 0 ft / 0 m
Waypoints 3
Social Downloads 9
Likes 0
Share VATSIM

Download

Looking for another format? Having issues loading an existing format? Contact us
Advertisement - Login to hide

Notes

Generated

Route

UUEE AM UWKD

ID Type Via Altitude Latitude Longitude Leg Dist Tot Dist Heading (true) Name
O UUEE APT - 0 ft / 0 m 55.96979˚ 37.38673˚ - 0 nm - -
AM NDB - 0 ft / 0 m 55.63167˚ 49.20833˚ 399 nm 399 nm 88° / 98° KAZAN NDB
O UWKD APT - 0 ft / 0 m 55.61063˚ 49.26681˚ 2 nm 401 nm 122° / 123° -

Altitude Profile

Advertisement - Login to hide

Weather


0- 5 10 15 20 25 30 35+ Temperature / ° C

Clouds and Precipitation
Forecast for 2018-05-20 18:00 UTC. Updated 4 hours ago

Ground ~20,000 ft ~40,000 ft Winds

UUEE

Details ICAO UUEE (SVO)
Name Moscou Sheremetyevo
Region Russia
Timezone Europe/Moscow (UTC+3.0)
Stats Elevation 622 ft / 190 m (AMSL)
Location 55.972642° 37.414586°
Runways 2
Magnetic Variation 11.220° E

METAR

UUEE 202130Z 01004MPS CAVOK 08/04 Q1024 R06R/150062 NOSIG

Decode

TAF

TAF UUEE 201950Z 2021/2121 01003MPS 6000 SCT030 TX18/2112Z TN07/2103Z

Decode

Departure Runways

ID Width Length Bearing (true) Bearing (mag) Surface Threshold Offset Overrun Length
07L 197 ft / 60 m 11,613 ft / 3,540 m 74.99° 63.77° Concrete 0 ft / 0 m 240 ft / 73 m
07R 197 ft / 60 m 12,127 ft / 3,696 m 75.03° 63.81° Concrete 0 ft / 0 m 235 ft / 72 m
25L 197 ft / 60 m 12,127 ft / 3,696 m 255.08° 243.86° Concrete 0 ft / 0 m 245 ft / 75 m
25R 197 ft / 60 m 11,613 ft / 3,540 m 255.04° 243.82° Concrete 0 ft / 0 m 245 ft / 75 m

UWKD

Details ICAO UWKD (KZN)
Name KAZAN
Region Russia
Timezone Europe/Moscow (UTC+3.0)
Stats Elevation 411 ft / 125 m (AMSL)
Location 55.606544° 49.279689°
Runways 2
Magnetic Variation 13.333° E

METAR

UWKD 202130Z 36005MPS 9999 OVC024 09/03 Q1020 R29/CLRD70 NOSIG RMK QFE754/1005

Decode

TAF

TAF UWKD 201955Z 2021/2121 35006MPS 9999 BKN015 TX20/2112Z TN07/2102Z BECMG 2022/2024 02007MPS

Decode

Destination Runways

ID Width Length Bearing (true) Bearing (mag) Surface Threshold Offset Overrun Length
11L 144 ft / 44 m 12,189 ft / 3,715 m 126.46° 113.13° Concrete 837 ft / 255 m 0 ft / 0 m
11R 148 ft / 45 m 8,174 ft / 2,492 m 124.48° 111.15° Concrete 0 ft / 0 m 180 ft / 55 m
29L 148 ft / 45 m 8,174 ft / 2,492 m 304.51° 291.18° Concrete 0 ft / 0 m 180 ft / 55 m
29R 144 ft / 44 m 12,189 ft / 3,715 m 306.50° 293.17° Concrete 0 ft / 0 m 160 ft / 49 m

Popular Alternatives